www.pogodaiklimat.ru

Погода и климат >> Архив погоды >> Таиланд >> Чаванг


ПОГОДА в Чаванге

  • Прогноз погоды в Чаванге
  • Монитор погоды в Чаванге

АРХИВ ПОГОДЫ в Чаванге

Время (UTC), дата Ветер
(напр.,м/с)
 
Видим.   Явления Облачность Т
(С)
Тd
(С)
f
(%)
Тe
(С)
Тes
(С)
Комфортность P
(гПа)
Po
(гПа)
Тmin
(С)
Tmax
(С)
R
(мм)
R24
(мм)
S
(см)
12 14.04 штиль 0 10 км зарница {гроза} 6/3 600 м
[Cb calv Cs]
+30.7 +24.7 70 +43 +43 опасность
перегрева
1008.1 1004.7 +39.0
15 14.04 штиль 0 10 км 5/3 600 м
[Sc Ci fib]
+27.5 +23.9 81 +38 +38 очень
душно
1010.8 1007.3
18 14.04 штиль 0 10 км 5/3 600 м
[Sc Ci fib]
+25.5 +24.8 96 +36 +36 очень
душно
1010.0 1006.5
21 14.04 штиль 0 10 км 3/0
[Ci fib]
+25.0 +24.3 96 +35 +35 очень
душно
1009.0 1005.5
00 15.04 штиль 0 8000 м дымка 8/0
[Cs]
+25.5 +24.3 93 +35 +36 очень
душно
1009.8 1006.3 +25.0
03 15.04 штиль 0 10 км 8/3 300 м
[Cu Sc Cs]
+30.8 +23.4 65 +42 +54 опасность
перегрева
1011.0 1007.5
06 15.04 СВ 3 12 км 8/3 300 м
[Cu Sc Cs]
+36.0 +24.4 51 +48 +59 опасность
перегрева
1009.6 1006.2
09 15.04 СЗ 3 12 км 8/4 300 м
[Cu Sc Cs]
+37.0 +24.3 48 +49 +52 опасность
перегрева
1007.7 1004.3
12 15.04 штиль 0 8000 м дымка {гроза} 8/4 300 м
[Cb calv Cs]
+27.7 +24.8 84 +39 +39 очень
душно
1008.3 1004.8 +37.5 0.0
15 15.04 штиль 0 7000 м дымка 8/4 300 м
[Cu Sc Cs]
+26.7 +25.7 94 +39 +39 очень
душно
1010.6 1007.1
18 15.04 штиль 0 7000 м дымка 8/4 300 м
[Cu Sc Cs]
+26.0 +24.8 93 +37 +37 очень
душно
1010.1 1006.6
21 15.04 штиль 0 6000 м дымка 8/3 600 м
[Cu Sc Cs]
+25.0 +24.3 96 +35 +35 очень
душно
1009.3 1005.8
00 16.04 штиль 0 7000 м дымка 8/3 600 м
[Cu Sc Cs]
+25.3 +24.6 96 +36 +36 очень
душно
1009.8 1006.3 +24.8 0.0
03 16.04 З 2 10 км 5/3 600 м
[Cu Sc Cs]
+33.0 +24.8 62 +46 +56 опасность
перегрева
1011.0 1007.6
06 16.04 СЗ 3 10 км 6/4 300 м
[Cu Sc Cs]
+34.5 +24.9 58 +48 +58 опасность
перегрева
1009.9 1006.5
09 16.04 штиль 0 8000 м в посл. час дождь {гроза} 8/4 300 м
[Cu Sc Cs]
+27.6 +25.6 89 +41 +46 опасность
перегрева
1007.9 1004.5 0.5
12 16.04 штиль 0 7000 м дымка {гроза, дождь} 8/5 300 м
[Cu Sc Cs]
+27.0 +24.8 88 +39 +39 очень
душно
1009.3 1005.9 +35.0 0.5
15 16.04 штиль 0 7000 м дымка 8/4 600 м
[Cu Sc Cs]
+26.0 +25.0 94 +37 +37 очень
душно
1011.6 1008.1
18 16.04 штиль 0 6000 м дымка 8/3 600 м
[Cu Sc Cs]
+25.0 +24.3 96 +35 +35 очень
душно
1010.6 1007.1
21 16.04 штиль 0 5000 м дымка 5/3 600 м
[Cu Sc Cs]
+24.5 +23.8 96 +33 +33 очень
душно
1009.9 1006.4
00 17.04 штиль 0 800 м туман 8/3 600 м
[Cu Sc Cs]
+24.2 +23.6 96 +33 +33 очень
душно
1010.7 1007.2 +23.7 0.5
03 17.04 штиль 0 12 км {туман} 3/1 600 м
[Cu hum Ci fib]
+31.4 +25.2 70 +45 +63 опасность
перегрева
1011.2 1007.8
06 17.04 Ю 7 12 км {туман} 3/3 600 м
[Cu hum Ci fib]
+36.5 +22.8 45 +46 +50 опасность
перегрева
1009.6 1006.2
09 17.04 В 3 12 км 5/3 600 м
[Cu med, cong Cs]
+37.0 +22.4 43 +46 +50 опасность
перегрева
1006.9 1003.5
12 17.04 штиль 0 10 км 4/3 600 м
[Cu med, cong Cs]
+33.7 +24.5 59 +47 +47 опасность
перегрева
1007.2 1003.8 +38.0
15 17.04 штиль 0 8000 м дымка 3/3 600 м
[Sc Ci fib]
+29.0 +25.5 81 +43 +43 опасность
перегрева
1010.2 1006.7
18 17.04 штиль 0 8000 м дымка 3/1 600 м
[Sc Ci fib]
+26.6 +25.0 91 +38 +38 очень
душно
1009.8 1006.3
21 17.04 штиль 0 7000 м дымка 3/1 600 м
[Cu hum Ci fib]
+25.5 +24.3 93 +35 +35 очень
душно
1008.5 1005.0
00 18.04 штиль 0 8000 м дымка 3/3 600 м
[Sc Ci fib]
+25.0 +23.8 93 +34 +35 очень
душно
1009.4 1005.9 +24.7
03 18.04 Ю 5 12 км 3/1 600 м
[Cu hum Ci fib]
+33.0 +23.3 57 +44 +51 опасность
перегрева
1011.1 1007.7
06 18.04 ЮЗ 3 12 км 3/3 600 м
[Cu hum Ci fib]
+37.8 +22.7 42 +47 +59 опасность
перегрева
1009.3 1005.9
09 18.04 СЗ 3 12 км 5/3 600 м
[Cu med, cong Cs]
+37.2 +23.0 44 +47 +51 опасность
перегрева
1006.4 1003.1
12 18.04 штиль 0 8000 м осадки на расстоянии 8/3 600 м
[Cu Sc Cs]
+33.0 +25.4 64 +47 +47 опасность
перегрева
1006.9 1003.5 +38.5
15 18.04 штиль 0 8000 м дымка 5/3 600 м
[Sc Cs]
+27.7 +23.8 79 +38 +38 очень
душно
1010.4 1006.9
18 18.04 штиль 0 7000 м дымка 3/1 600 м
[Sc Ci fib]
+25.6 +24.4 93 +36 +36 очень
душно
1009.6 1006.1
21 18.04 штиль 0 7000 м дымка 3/1 600 м
[Sc Ci fib]
+24.8 +23.6 93 +34 +34 очень
душно
1008.2 1004.7
00 19.04 штиль 0 8000 м дымка 3/3 600 м
[Sc Ci fib]
+24.7 +23.7 94 +34 +34 очень
душно
1009.1 1005.6 +24.5
03 19.04 штиль 0 12 км 3/3 600 м
[Cu hum Ci fib]
+34.1 +25.6 61 +49 +63 опасность
перегрева
1010.5 1007.1
06 19.04 штиль 0 12 км 4/3 600 м
[Cu med, cong Ci fib]
+36.0 +24.7 52 +49 +68 опасность
перегрева
1007.8 1004.5
09 19.04 штиль 0 12 км 4/3 600 м
[Cu med, cong Ci fib]
+37.5 +23.2 44 +47 +55 опасность
перегрева
1005.9 1002.6
12 19.04 штиль 0 8000 м слаб. дождь 10/8 300 м
[Cu Sc Ac As Cs]
+29.0 +24.7 78 +41 +41 опасность
перегрева
1007.0 1003.6 +39.0 3
15 19.04 штиль 0 10 км {дождь} 8/5 600 м
[Cu Sc Cs]
+27.5 +24.6 84 +39 +39 очень
душно
1009.2 1005.7 0.6
18 19.04 штиль 0 10 км {дождь} 8/3 600 м
[Cu Sc Cs]
+26.8 +24.8 89 +38 +38 очень
душно
1008.8 1005.3 4
21 19.04 штиль 0 10 км 8/5 600 м
[Cu Sc Cs]
+25.5 +24.8 96 +36 +36 очень
душно
1007.6 1004.1
00 20.04 штиль 0 8000 м дымка 8/0
[Cs]
+25.7 +25.1 96 +37 +38 очень
душно
1008.1 1004.6 +25.0 4
03 20.04 штиль 0 12 км 8/0
[Cs]
+32.3 +25.7 68 +47 +64 опасность
перегрева
1009.1 1005.6
06 20.04 штиль 0 12 км 8/3 600 м
[Cu med, cong Cs]
+36.5 +23.7 48 +47 +65 опасность
перегрева
1007.7 1004.3
09 20.04 штиль 0 12 км 8/3 600 м
[Cu hum Cs]
+32.0 +23.7 62 +43 +50 опасность
перегрева
1005.2 1001.8
12 20.04 штиль 0 10 км 8/3 600 м
[Cu hum Cs]
+29.5 +22.9 68 +39 +39 очень
душно
1006.4 1003.0 +38.0
15 20.04 штиль 0 10 км 8/3 600 м
[Cu hum Cs]
+26.7 +24.2 86 +37 +37 очень
душно
1008.6 1005.2
18 20.04 штиль 0 10 км 5/0
[Ci fib]
+25.5 +24.0 91 +35 +35 очень
душно
1007.0 1003.5
21 20.04 штиль 0 10 км 8/5 600 м
[Sc Cs]
+25.0 +23.8 93 +34 +34 очень
душно
1006.0 1002.5
00 21.04 штиль 0 8000 м дымка 8/0
[Cs]
+25.0 +24.3 96 +35 +36 очень
душно
1007.7 1004.2 +25.0
03 21.04 штиль 0 10 км 4/1 600 м
[Cu hum Cs]
+31.5 +24.8 68 +45 +62 опасность
перегрева
1008.6 1005.1
06 21.04 Ю 2 12 км 6/3 600 м
[Cu Sc Cs]
+36.3 +21.2 42 +44 +58 опасность
перегрева
1006.0 1002.6
09 21.04 ЮВ 4 12 км 8/3 600 м
[Cu Sc Cs]
+38.4 +23.6 43 +49 +52 опасность
перегрева
1003.7 1000.4

 

Местоположение метеостанции Чаванг (Таиланд): широта 8.43 долгота 99.50 высота над уровнем моря 30 м.

В архиве по умолчанию представлена погода в Чаванге за последнюю неделю. Архивные данные за месяц целиком и за предыдущие месяцы, начиная с января 2011 года, Вы можете получить, выбрав интересующий диапазон дат из раскрывающегося списка и нажав кнопку "Ввод!".


*Определитесь, кто Вы:
робот инопланетянин человек

Внимание! Время в таблицах - всемирное. Для получения местного времени необходимо прибавить поправку, которая равна 7 ч.

Смотрите также архив погоды в соседних городах и на ближайших метеорологических станциях:

Погода в Прасанге (Таиланд) (32 км)
Погода в Накхонситхаммарате 2 (Таиланд) (51 км)
Погода в Накхонситхаммарате (Таиланд) (69 км)
Погода в Краби (Таиланд) (75 км)
Погода в Сураттхани Агромете (Таиланд) (76 км)
Погода в Сураттхани (Таиланд) (86 км)
Погода в Транге (Таиланд) (102 км)
Погода на Ко Ланта (Таиланд) (112 км)
Погода в Пхаттхалунг Агромете (Таиланд) (120 км)
Погода в Самуи (Таиланд) (131 км)

Пояснения к столбцам:

Ветер - указаны скорость ветра в м/с - средняя за 10 мин, порывы в срок и между сроками (в фигурных скобках) и направление, откуда дует ветер: С - северный, СВ - северо-восточный, В - восточный, ЮВ - юго-восточный, Ю - южный, ЮЗ - юго-западный, З - западный, СЗ - северо-западный.
Видимость - горизонтальная дальность видимости в метрах или километрах. При видимости от 1 до 10 км при отсутствии осадков обычно наблюдается дымка, при ухудшении видимости до 1 км и менее - туман. В сухую погоду видимость может ухудшаться дымом, пылью или мглою.
Явления - указаны атмосферные явления, наблюдавшиеся в срок или в последний час перед сроком; фигурными скобками обозначены явления, наблюдавшиеся между сроками (за 1-3 часа до срока); квадратными скобками обозначены град или гололедные отложения с указанием их диаметра в мм.
Облачность - указаны через наклонную черту общая и нижняя облачность в баллах и высота нижней границы облаков в метрах; квадратными скобками обозначены формы облаков: Ci - перистые, Cs - перисто-слоистые, Cc - перисто-кучевые, Ac - высококучевые, As - высокослоистые, Sc - слоисто-кучевые, Ns - слоисто-дождевые, Cu - кучевые, Cb - кучево-дождевые. Подробнее классификацию облаков см. в Атласе облаков (PDF).
T - Температура воздуха - температура, измеренная на высоте 2 м над землей.
Td - Температура точки росы - температура, при понижении до которой содержащийся в воздухе водяной пар достигнет насыщения.
f - Относительная влажность воздуха - влажноcть воздуха, измеренная на высоте 2 м над землей.
Te - Эффективная температура - температура, которую ощущает одетый по сезону человек в тени. Характеристика душности погоды. При расчете учитывается влияние влажности воздуха и скорости ветра на теплоощущения человека.
Tes - Эффективная температура на солнце - температура, которую ощущает человек, с поправкой на солнечный нагрев. Характеристика знойности погоды. Зависит от высоты солнца над горизонтом, облачности и скорости ветра. Ночью, в пасмурную погоду, а также при ветре 12 м/с и более поправка равна нулю.
P - Атмосферное давление - приведенное к уровню моря атмосферное давление.
Po - Атмосферное давление - измеренное на уровне метеостанции атмосферное давление.
Tmin - Минимальная температура - минимум температуры воздуха на высоте 2 м над землей.
Tmax - Максимальная температура - максимум температуры воздуха на высоте 2 м над землей.
R - Количество осадков - Количество выпавших осадков за период времени, мм. При наведении курсора мыши на число - период времени, за который выпало указанное количество осадков.
R24 - Количество осадков - Количество выпавших осадков за 24 часа, мм.
S - Снежный покров - Высота снежного покрова, см. При наведении курсора мыши на число - состояние снежного покрова и степень покрытия местности в баллах.